| time (UTC) | temp F | wind direction | speed knots | gust knots | rain 1hr in | rain 24hr in | rain mn in | humidity % | barometer mb |
| 20260504060132 | 58 | 297 | 3.5 | 7.8 | 0.00 | 0.09 | 0.00 | 62 | 1005.1 |
| 20260504050128 | 60 | 300 | 4.3 | 11.3 | 0.00 | 0.09 | 0.00 | 61 | 1005.3 |
| 20260504045627 | 60 | 246 | 4.3 | 11.3 | 0.00 | 0.09 | 0.09 | 61 | 1005.3 |
| 20260504045127 | 60 | 291 | 4.3 | 10.4 | 0.00 | 0.09 | 0.09 | 62 | 1005.3 |
| 20260504044627 | 59 | 234 | 4.3 | 12.2 | 0.00 | 0.09 | 0.09 | 62 | 1005.3 |
| 20260504044127 | 59 | 244 | 4.3 | 12.2 | 0.00 | 0.09 | 0.09 | 62 | 1005.2 |
| 20260504043628 | 59 | 293 | 3.5 | 10.4 | 0.00 | 0.09 | 0.09 | 63 | 1005.3 |
| 20260504043129 | 59 | 241 | 3.5 | 7.8 | 0.00 | 0.09 | 0.09 | 63 | 1005.3 |
| 20260504042128 | 59 | 256 | 4.3 | 10.4 | 0.00 | 0.09 | 0.09 | 64 | 1005.3 |
| 20260504041630 | 59 | 285 | 4.3 | 10.4 | 0.00 | 0.09 | 0.09 | 64 | 1005.2 |
| 20260504041125 | 59 | 250 | 4.3 | 9.6 | 0.00 | 0.09 | 0.09 | 65 | 1005.2 |
| 20260504040625 | 59 | 250 | 4.3 | 10.4 | 0.00 | 0.09 | 0.09 | 65 | 1005.3 |
| 20260504040127 | 58 | 189 | 4.3 | 10.4 | 0.00 | 0.09 | 0.09 | 66 | 1005.3 |
| 20260504035125 | 58 | 252 | 2.6 | 7.8 | 0.00 | 0.09 | 0.09 | 67 | 1005.2 |
| 20260504034625 | 58 | 216 | 3.5 | 7.8 | 0.00 | 0.09 | 0.09 | 67 | 1005.2 |
| 20260504033626 | 58 | 234 | 2.6 | 7.8 | 0.00 | 0.09 | 0.09 | 67 | 1005.2 |
| 20260504033126 | 58 | 194 | 2.6 | 7.8 | 0.00 | 0.09 | 0.09 | 67 | 1005.3 |
| 20260504032625 | 59 | 269 | 2.6 | 6.1 | 0.00 | 0.09 | 0.09 | 66 | 1005.4 |
| 20260504032126 | 59 | 196 | 3.5 | 7.8 | 0.00 | 0.09 | 0.09 | 66 | 1005.4 |
| 20260504031625 | 59 | 196 | 3.5 | 7.8 | 0.00 | 0.09 | 0.09 | 66 | 1005.4 |
| 20260504031126 | 59 | 209 | 3.5 | 7.8 | 0.00 | 0.09 | 0.09 | 65 | 1005.3 |
| 20260504030625 | 60 | 190 | 3.5 | 7.8 | 0.00 | 0.09 | 0.09 | 65 | 1005.4 |
| 20260504030125 | 60 | 204 | 3.5 | 6.1 | 0.00 | 0.09 | 0.09 | 64 | 1005.4 |
| 20260504025622 | 60 | 124 | 3.5 | 7.0 | 0.00 | 0.09 | 0.09 | 64 | 1005.3 |
| 20260504025122 | 60 | 232 | 3.5 | 7.0 | 0.00 | 0.09 | 0.09 | 63 | 1005.4 |
| 20260504024621 | 60 | 217 | 3.5 | 6.1 | 0.00 | 0.09 | 0.09 | 63 | 1005.4 |
| 20260504024122 | 61 | 259 | 3.5 | 7.0 | 0.00 | 0.09 | 0.09 | 62 | 1005.4 |
| 20260504023121 | 61 | 202 | 3.5 | 7.0 | 0.00 | 0.09 | 0.09 | 62 | 1005.3 |
| 20260504022619 | 61 | 189 | 3.5 | 7.8 | 0.00 | 0.09 | 0.09 | 61 | 1005.3 |
| 20260504022115 | 61 | 210 | 3.5 | 7.8 | 0.00 | 0.09 | 0.09 | 61 | 1005.2 |
| 20260504021608 | 62 | 172 | 3.5 | 7.0 | 0.00 | 0.09 | 0.09 | 61 | 1005.2 |
| 20260504021101 | 62 | 203 | 3.5 | 7.0 | 0.00 | 0.09 | 0.09 | 60 | 1005.2 |
| 20260504020555 | 62 | 227 | 3.5 | 7.8 | 0.00 | 0.09 | 0.09 | 60 | 1005.2 |
| 20260504020050 | 62 | 219 | 3.5 | 7.8 | 0.00 | 0.09 | 0.09 | 59 | 1005.2 |
| 20260504015544 | 63 | 241 | 3.5 | 7.0 | 0.00 | 0.09 | 0.09 | 59 | 1005.1 |
| 20260504014532 | 63 | 203 | 3.5 | 7.8 | 0.00 | 0.09 | 0.09 | 58 | 1005.0 |
| 20260504014025 | 64 | 199 | 3.5 | 7.8 | 0.00 | 0.09 | 0.09 | 57 | 1005.0 |
| 20260504013520 | 64 | 231 | 4.3 | 8.7 | 0.00 | 0.09 | 0.09 | 57 | 1004.9 |
| 20260504013014 | 64 | 264 | 4.3 | 10.4 | 0.00 | 0.09 | 0.09 | 56 | 1004.9 |
| 20260504012508 | 64 | 231 | 4.3 | 8.7 | 0.00 | 0.09 | 0.09 | 56 | 1004.9 |
| 20260504012003 | 65 | 201 | 3.5 | 9.6 | 0.00 | 0.09 | 0.09 | 55 | 1004.9 |
| 20260504011455 | 65 | 223 | 4.3 | 9.6 | 0.00 | 0.09 | 0.09 | 55 | 1004.8 |
| 20260504010949 | 65 | 183 | 4.3 | 9.6 | 0.00 | 0.09 | 0.09 | 54 | 1004.9 |
| 20260504010443 | 65 | 194 | 4.3 | 9.6 | 0.00 | 0.09 | 0.09 | 54 | 1004.9 |
| 20260504005431 | 66 | 216 | 5.2 | 10.4 | 0.00 | 0.09 | 0.09 | 52 | 1004.9 |
| 20260504004926 | 66 | 217 | 4.3 | 10.4 | 0.00 | 0.09 | 0.09 | 51 | 1004.8 |
| 20260504004420 | 67 | 250 | 4.3 | 10.4 | 0.00 | 0.09 | 0.09 | 50 | 1004.9 |
| 20260504003913 | 67 | 203 | 3.5 | 8.7 | 0.00 | 0.09 | 0.09 | 50 | 1004.8 |
| 20260504003408 | 67 | 210 | 3.5 | 8.7 | 0.00 | 0.09 | 0.09 | 50 | 1004.8 |
| 20260504002903 | 67 | 212 | 3.5 | 8.7 | 0.00 | 0.09 | 0.09 | 50 | 1004.8 |
| 20260504001849 | 68 | 233 | 3.5 | 10.4 | 0.00 | 0.09 | 0.09 | 49 | 1004.9 |
| 20260504000837 | 68 | 237 | 3.5 | 8.7 | 0.00 | 0.09 | 0.09 | 48 | 1004.9 |
| 20260504000332 | 68 | 288 | 4.3 | 10.4 | 0.00 | 0.09 | 0.09 | 48 | 1004.8 |
| 20260503235826 | 68 | 254 | 4.3 | 14.8 | 0.00 | 0.09 | 0.09 | 47 | 1004.8 |
| 20260503235320 | 68 | 294 | 5.2 | 14.8 | 0.00 | 0.09 | 0.09 | 48 | 1004.9 |
| 20260503234309 | 69 | 303 | 7.0 | 14.8 | 0.00 | 0.09 | 0.09 | 47 | 1004.9 |
| 20260503233803 | 69 | 230 | 6.1 | 13.9 | 0.00 | 0.09 | 0.09 | 46 | 1004.9 |
| 20260503232751 | 69 | 273 | 4.3 | 12.2 | 0.00 | 0.09 | 0.09 | 47 | 1004.9 |
| 20260503232244 | 69 | 244 | 5.2 | 13.9 | 0.00 | 0.09 | 0.09 | 46 | 1005.0 |
| 20260503231231 | 69 | 228 | 7.8 | 18.2 | 0.00 | 0.09 | 0.09 | 46 | 1005.1 |
| 20260503230728 | 69 | 269 | 7.8 | 20.9 | 0.00 | 0.09 | 0.09 | 46 | 1004.9 |
| 20260503230220 | 69 | 240 | 7.8 | 20.9 | 0.00 | 0.09 | 0.09 | 46 | 1005.1 |
| 20260503225714 | 69 | 249 | 7.0 | 15.6 | 0.00 | 0.09 | 0.09 | 46 | 1005.1 |
| 20260503225208 | 69 | 246 | 6.1 | 16.5 | 0.00 | 0.09 | 0.09 | 47 | 1005.1 |
| 20260503224702 | 69 | 158 | 6.1 | 16.5 | 0.00 | 0.09 | 0.09 | 47 | 1005.2 |
| 20260503224155 | 69 | 350 | 7.8 | 19.1 | 0.00 | 0.09 | 0.09 | 47 | 1005.1 |
| 20260503223651 | 69 | 278 | 8.7 | 19.1 | 0.00 | 0.09 | 0.09 | 46 | 1005.2 |
| 20260503223143 | 70 | 216 | 7.0 | 15.6 | 0.00 | 0.09 | 0.09 | 45 | 1005.2 |
| 20260503222132 | 70 | 270 | 7.8 | 17.4 | 0.00 | 0.09 | 0.09 | 46 | 1005.3 |
| 20260503221632 | 70 | 237 | 7.0 | 18.2 | 0.00 | 0.09 | 0.09 | 46 | 1005.3 |
| 20260503220132 | 69 | 253 | 7.0 | 14.8 | 0.00 | 0.09 | 0.09 | 46 | 1005.4 |
| 20260503215132 | 69 | 287 | 7.0 | 17.4 | 0.00 | 0.09 | 0.09 | 47 | 1005.4 |
| 20260503214134 | 69 | 178 | 6.1 | 13.9 | 0.00 | 0.09 | 0.09 | 47 | 1005.5 |
| 20260503213133 | 69 | 262 | 7.0 | 18.2 | 0.00 | 0.09 | 0.09 | 47 | 1005.4 |
| 20260503212632 | 68 | 262 | 7.8 | 18.2 | 0.00 | 0.09 | 0.09 | 46 | 1005.5 |
| 20260503212133 | 68 | 215 | 7.8 | 18.2 | 0.00 | 0.09 | 0.09 | 47 | 1005.3 |
| 20260503211634 | 68 | 224 | 8.7 | 22.6 | 0.00 | 0.09 | 0.09 | 47 | 1005.5 |
| 20260503210633 | 68 | 189 | 8.7 | 21.7 | 0.00 | 0.09 | 0.09 | 47 | 1005.6 |
| 20260503205630 | 67 | 184 | 9.6 | 21.7 | 0.00 | 0.09 | 0.09 | 49 | 1005.7 |
| 20260503204112 | 66 | 185 | 7.8 | 16.5 | 0.00 | 0.09 | 0.09 | 49 | 1006.0 |
| 20260503203604 | 66 | 251 | 8.7 | 20.9 | 0.00 | 0.09 | 0.09 | 50 | 1006.2 |
| 20260503203058 | 66 | 189 | 7.8 | 20.9 | 0.00 | 0.09 | 0.09 | 49 | 1006.4 |
| 20260503202553 | 66 | 226 | 7.0 | 18.2 | 0.00 | 0.09 | 0.09 | 49 | 1006.5 |
| 20260503202046 | 66 | 158 | 7.8 | 18.2 | 0.00 | 0.09 | 0.09 | 50 | 1006.6 |
| 20260503201541 | 65 | 181 | 7.8 | 20.0 | 0.00 | 0.09 | 0.09 | 50 | 1006.8 |
| 20260503200529 | 64 | 220 | 9.6 | 18.2 | 0.00 | 0.09 | 0.09 | 50 | 1007.0 |
| 20260503200024 | 64 | 210 | 9.6 | 18.2 | 0.00 | 0.09 | 0.09 | 50 | 1007.1 |
| 20260503195517 | 65 | 174 | 11.3 | 21.7 | 0.00 | 0.09 | 0.09 | 49 | 1007.1 |
| 20260503195011 | 65 | 232 | 12.2 | 21.7 | 0.00 | 0.09 | 0.09 | 48 | 1007.4 |
| 20260503193959 | 66 | 165 | 9.6 | 21.7 | 0.00 | 0.09 | 0.09 | 46 | 1007.6 |
| 20260503193453 | 66 | 191 | 9.6 | 20.0 | 0.00 | 0.09 | 0.09 | 49 | 1007.6 |
| 20260503192947 | 65 | 299 | 9.6 | 23.5 | 0.00 | 0.09 | 0.09 | 50 | 1007.8 |
| 20260503192440 | 65 | 195 | 10.4 | 23.5 | 0.00 | 0.09 | 0.09 | 49 | 1007.7 |
| 20260503191935 | 65 | 207 | 10.4 | 22.6 | 0.00 | 0.09 | 0.09 | 48 | 1007.8 |
| 20260503190922 | 64 | 264 | 11.3 | 26.1 | 0.00 | 0.09 | 0.09 | 53 | 1007.8 |
| 20260503190416 | 64 | 259 | 11.3 | 26.1 | 0.00 | 0.09 | 0.09 | 55 | 1007.9 |
| 20260503185911 | 63 | 229 | 11.3 | 24.3 | 0.00 | 0.09 | 0.09 | 58 | 1008.1 |
| 20260503185405 | 62 | 203 | 11.3 | 25.2 | 0.00 | 0.09 | 0.09 | 56 | 1008.2 |
| 20260503184859 | 62 | 202 | 11.3 | 25.2 | 0.00 | 0.09 | 0.09 | 61 | 1008.3 |
| 20260503184352 | 62 | 200 | 11.3 | 23.5 | 0.00 | 0.09 | 0.09 | 61 | 1008.3 |
| 20260503183847 | 61 | 208 | 9.6 | 21.7 | 0.00 | 0.09 | 0.09 | 64 | 1008.3 |
| 20260503183340 | 61 | 243 | 11.3 | 25.2 | 0.00 | 0.09 | 0.09 | 63 | 1008.3 |
| 20260503182836 | 60 | 192 | 11.3 | 25.2 | 0.00 | 0.09 | 0.09 | 63 | 1008.3 |
| 20260503182328 | 60 | 208 | 10.4 | 25.2 | 0.00 | 0.09 | 0.09 | 67 | 1008.4 |
| 20260503181823 | 59 | 203 | 8.7 | 25.2 | 0.00 | 0.09 | 0.09 | 69 | 1008.6 |
| 20260503181317 | 58 | 195 | 8.7 | 18.2 | 0.00 | 0.09 | 0.09 | 71 | 1008.6 |
| 20260503180811 | 58 | 175 | 8.7 | 18.2 | 0.00 | 0.09 | 0.09 | 71 | 1008.7 |
| 20260503180304 | 57 | 155 | 9.6 | 18.2 | 0.00 | 0.09 | 0.09 | 72 | 1008.9 |
| 20260503175758 | 57 | 159 | 8.7 | 17.4 | 0.00 | 0.09 | 0.09 | 75 | 1008.9 |
| 20260503174747 | 55 | 108 | 7.8 | 16.5 | 0.00 | 0.09 | 0.09 | 77 | 1009.1 |
| 20260503174240 | 54 | 219 | 7.8 | 16.5 | 0.00 | 0.09 | 0.09 | 77 | 1009.4 |
| 20260503173735 | 54 | 169 | 7.0 | 19.1 | 0.00 | 0.09 | 0.09 | 77 | 1009.6 |
| 20260503172722 | 53 | 143 | 8.7 | 23.5 | 0.01 | 0.09 | 0.09 | 78 | 1009.9 |
| 20260503171710 | 52 | 188 | 6.1 | 14.8 | 0.01 | 0.09 | 0.09 | 82 | 1010.0 |
| 20260503171204 | 52 | 146 | 6.1 | 11.3 | 0.01 | 0.09 | 0.09 | 83 | 1009.8 |
| 20260503170701 | 51 | 131 | 5.2 | 11.3 | 0.01 | 0.09 | 0.09 | 84 | 1010.1 |
| 20260503170153 | 50 | 115 | 6.1 | 13.9 | 0.01 | 0.09 | 0.09 | 86 | 1010.5 |
| 20260503150519 | 49 | 155 | 3.5 | 7.0 | 0.06 | 0.06 | 0.06 | 84 | 1012.6 |
| 20260503131007 | 49 | 225 | 5.2 | 14.8 | 0.00 | 0.00 | 0.00 | 65 | 1013.5 |
| 20260503110819 | 46 | 220 | 4.3 | 10.4 | 0.00 | 0.00 | 0.00 | 66 | 1012.6 |
| 20260503110315 | 46 | 179 | 4.3 | 10.4 | 0.00 | 0.00 | 0.00 | 66 | 1012.6 |
| 20260503100202 | 48 | 260 | 4.3 | 10.4 | 0.00 | 0.00 | 0.00 | 60 | 1013.2 |
| 20260503080602 | 47 | 153 | 4.3 | 11.3 | 0.00 | 0.00 | 0.00 | 57 | 1013.6 |
| 20260503072549 | 47 | 191 | 3.5 | 9.6 | 0.00 | 0.00 | 0.00 | 57 | 1013.9 |
| 20260503072043 | 47 | 243 | 3.5 | 9.6 | 0.00 | 0.00 | 0.00 | 57 | 1013.9 |
| 20260503071043 | 47 | 283 | 2.6 | 7.0 | 0.00 | 0.00 | 0.00 | 57 | 1013.9 |